Zurück zum Katalog

COSMOS 397 DEB *

AktivLEO
NORAD 19024·DEBRIS·🇷🇺 Russia

Gestartet Feb 25, 1971 von Baikonur Cosmodrome

Loading…

Nächste Überflüge (nächste 24 Stunden)

TLE

AktuellSource: Space-Track

Epoche: Sep 14, 2026, 10:13 UTC

1 19024U 71015DN  26257.42590459  .00000524  00000-0  67119-3 0  9998
2 19024  66.2741 249.5370 0501507 333.5468  96.5494 13.26848681857569

Verfolge COSMOS 397 DEB * in Echtzeit mit AllMySat

Download on the App Store